GALAXY 14 (G-14)

Last updated on Feb. 20, 2020, 4:40 a.m. UTC

1 28790U 05030A   20050.71021483  .00000019  00000-0  00000-0 0  9997
2 28790   0.0596 291.3000 0002254  43.6715 304.7901  1.00271021 53154
UTC
Height (km)
Latitude
Longitude
Inclination
Orbital Period
UTC large
Height (km)
Speed (km/s)
/
Latitude / Longitude
Inclination (degrees)
Orbital Period (minutes)
Azimuth
Elevation
Range (km)
Doppler Factor
iOS Compass Heading
iOS Angle

Next 30 passes for location: Hong Kong

Rise time Rise Azimuth (degrees) Set time Set Azimuth (degrees) Duration Max altitude (degrees)

No matching passes for this satellites